Location: Inowrocław
(52.7931°N, 18.2613°E)
Time: 05:21:58
(UTC+02:00)

ISS - Visible Passes

Search period start: 28 May 2018 00:00
Search period end: 07 June 2018 00:00
Orbit: 402 x 407 km, 51.6° (Epoch: 28 May)

Date Brightness Start Highest point End Pass type
(mag) Time Alt. Az. Time Alt. Az. Time Alt. Az.
28 May -1.6 01:07:33 10° W 01:08:21 14° WSW 01:08:21 14° WSW visible
28 May -3.9 22:38:33 10° W 22:41:49 68° S 22:45:04 10° ESE visible
29 May -2.8 00:15:08 10° W 00:17:42 28° SW 00:17:42 28° SW visible
29 May -3.9 21:46:21 10° W 21:49:37 73° S 21:52:53 10° E visible
29 May -3.3 23:22:49 10° W 23:25:55 40° SSW 23:27:06 28° SSE visible
30 May -3.6 22:30:33 10° W 22:33:46 52° SSW 22:36:31 13° ESE visible
31 May -1.9 00:07:29 10° W 00:09:08 17° SW 00:09:08 17° SW visible
31 May -2.6 23:14:57 10° W 23:17:43 25° SSW 23:18:35 22° S visible
01 Jun -3.0 22:22:33 10° W 22:25:36 35° SSW 22:28:02 14° SE visible
02 Jun -1.8 23:07:21 10° WSW 23:09:21 15° SW 23:10:09 14° SSW visible
03 Jun -2.2 22:14:39 10° W 22:17:17 22° SSW 22:19:40 11° SSE visible
05 Jun -1.4 22:07:11 10° WSW 22:08:49 13° SW 22:10:27 10° S visible
